Barcelona, Spain

9:50 AM CEST on October 17, 2018 (GMT +0200)
El Prat

Weather History for LEBL - February, 2018

Change the Weather History Date:

Wednesday, February 14, 2018

  Actual Average Record
Temperature  
Mean Temperature 46 °F -  
Max Temperature 53 °F 57 °F 68 °F (2014)
Min Temperature 39 °F 43 °F 35 °F (1999)
Degree Days  
Heating Degree Days 19    
Moisture  
Dew Point 36 °F    
Average Humidity 68    
Maximum Humidity 87    
Minimum Humidity 49    
Precipitation  
Precipitation 0.00 in 0.05 in - ()
Sea Level Pressure  
Sea Level Pressure 30.03 in    
Wind  
Wind Speed 7 mph ()    
Max Wind Speed 13 mph    
Max Gust Speed -    
Visibility 10.1 miles    
Events      
Averages and records for this station are not official NWS values.
T = Trace of Precipitation, MM = Missing Value Source: Averaged Metar Reports

Daily Weather History Graph

Daily Weather History Graph

Search for Another Location

Airport or City:

Astronomy

Feb. 14, 2018 Rise Set
Actual Time 7:48 AM CET 6:24 PM CET
Civil Twilight 7:19 AM CET 6:52 PM CET
Nautical Twilight 6:47 AM CET 7:25 PM CET
Astronomical Twilight 6:15 AM CET 7:57 PM CET
Moon 6:58 AM CET (2/14) 5:10 PM CET (2/14)
Length of Visible Light 11h 32m
Length of Day
10h 36m
Waning Crescent, 2% of the Moon is Illuminated
Feb 14
Waning Crescent
Feb 15
New
Feb 23
First Quarter
Mar 2
Full
Mar 9
Last Quarter

Hourly Weather History & Observations

Time (CET) Temp. Windchill Dew Point Humidity Pressure Visibility Wind Dir Wind Speed Gust Speed Precip Events Conditions
12:00 AM 46.4 °F 44.3 °F 32.0 °F 57% 29.98 in - WSW 4.6 mph - N/A   Clear
12:30 AM 44.6 °F 39.2 °F 33.8 °F 66% 29.98 in - West 10.4 mph - N/A   Clear
1:00 AM 45 °F - 34 °F 54% 29.98 in 25 mi West 5.8 mph - -   Scattered Clouds
1:00 AM 44.6 °F 39.2 °F 33.8 °F 66% 29.98 in - WSW 10.4 mph - N/A   Clear
1:30 AM 42.8 °F 37.0 °F 33.8 °F 70% 29.95 in - West 10.4 mph - N/A   Clear
2:00 AM 44 °F - 34 °F 58% 29.97 in 19 mi West 8.1 mph - -  
2:00 AM 42.8 °F 38.0 °F 33.8 °F 70% 29.95 in - West 8.1 mph - N/A   Clear
2:30 AM 44.6 °F 40.2 °F 33.8 °F 66% 29.95 in - West 8.1 mph - N/A   Clear
3:00 AM 44 °F - 34 °F 57% 29.98 in 19 mi West 5.8 mph - -  
3:00 AM 42.8 °F 41.1 °F 33.8 °F 70% 29.98 in - NNW 3.5 mph - N/A   Clear
3:30 AM 42.8 °F 41.1 °F 33.8 °F 70% 29.98 in - North 3.5 mph - N/A   Clear
4:00 AM 42 °F - 33 °F 61% 29.98 in 19 mi NNE 4.6 mph - -   Clear
4:00 AM 41.0 °F 39.0 °F 32.0 °F 70% 29.98 in - NE 3.5 mph - N/A   Clear
4:30 AM 39.2 °F 35.9 °F 32.0 °F 75% 29.98 in - North 4.6 mph - N/A   Clear
5:00 AM 39 °F - 33 °F 70% 29.99 in 17 mi North 2.3 mph - -  
5:00 AM 39.2 °F 35.0 °F 32.0 °F 75% 29.98 in - North 5.8 mph - N/A   Clear
5:30 AM 39.2 °F 34.2 °F 32.0 °F 75% 29.98 in - NW 6.9 mph - N/A   Clear
6:00 AM 40 °F - 33 °F 67% 30.01 in 17 mi North 10.4 mph - -  
6:00 AM 39.2 °F 34.2 °F 32.0 °F 75% 29.98 in - NW 6.9 mph - N/A   Clear
6:30 AM 41.0 °F 33.9 °F 32.0 °F 70% 30.01 in - NW 12.7 mph - N/A   Clear
7:00 AM 41 °F - 33 °F 64% 30.01 in 19 mi North 9.2 mph - -   Partly Cloudy
7:00 AM 41.0 °F 34.7 °F 33.8 °F 76% 30.01 in - NW 10.4 mph - N/A   Clear
7:30 AM 39.2 °F 34.2 °F 32.0 °F 75% 30.01 in - NNW 6.9 mph - N/A   Clear
8:00 AM 40 °F - 33 °F 66% 30.03 in 15 mi North 10.4 mph - -  
8:00 AM 39.2 °F 32.5 °F 32.0 °F 75% 30.01 in - NW 10.4 mph - N/A   Clear
8:30 AM 39.2 °F 33.0 °F 32.0 °F 75% 30.04 in - NNW 9.2 mph - N/A   Clear
9:00 AM 40 °F - 33 °F 67% 30.05 in 13 mi North 10.4 mph - -  
9:00 AM 39.2 °F 33.0 °F 32.0 °F 75% 30.04 in 6.2 mi NW 9.2 mph - N/A   Scattered Clouds
9:30 AM 39.2 °F 33.0 °F 32.0 °F 75% 30.04 in 6.2 mi NNW 9.2 mph - N/A   Mostly Cloudy
10:00 AM 41 °F - 33 °F 65% 30.07 in 16 mi North 11.5 mph - -   Mostly Cloudy
10:00 AM 41.0 °F 34.3 °F 32.0 °F 70% 30.06 in 6.2 mi NNW 11.5 mph - N/A   Mostly Cloudy
10:30 AM 41.0 °F 34.3 °F 33.8 °F 76% 30.06 in 6.2 mi NNW 11.5 mph - N/A   Mostly Cloudy
11:00 AM 44 °F - 33 °F 56% 30.09 in 16 mi North 11.5 mph - -  
11:00 AM 42.8 °F 37.5 °F 32.0 °F 66% 30.06 in 6.2 mi NW 9.2 mph - N/A   Mostly Cloudy
11:30 AM 44.6 °F 40.2 °F 33.8 °F 66% 30.06 in 6.2 mi NW 8.1 mph - N/A   Mostly Cloudy
12:00 PM 47 °F - 35 °F 52% 30.09 in 15 mi North 9.2 mph - -  
12:00 PM 44.6 °F 40.2 °F 33.8 °F 66% 30.06 in 6.2 mi NNW 8.1 mph - N/A   Mostly Cloudy
12:30 PM 46.4 °F 42.9 °F 33.8 °F 62% 30.06 in 6.2 mi NNW 6.9 mph - N/A   Mostly Cloudy
1:00 PM 49 °F - 36 °F 51% 30.06 in 16 mi North 9.2 mph - -   Mostly Cloudy
1:00 PM 48.2 °F - 35.6 °F 62% 30.06 in 6.2 mi NNW 6.9 mph - N/A   Mostly Cloudy
1:30 PM 48.2 °F - 35.6 °F 62% 30.04 in 6.2 mi NNW 5.8 mph - N/A   Mostly Cloudy
2:00 PM 49 °F - 36 °F 51% 30.06 in 16 mi North 8.1 mph - -  
2:00 PM 48.2 °F - 35.6 °F 62% 30.04 in 6.2 mi NW 4.6 mph - N/A   Mostly Cloudy
2:30 PM 48.2 °F - 35.6 °F 62% 30.04 in 6.2 mi NW 4.6 mph - N/A   Mostly Cloudy
3:00 PM 51 °F - 38 °F 51% 30.05 in 14 mi North 4.6 mph - -  
3:00 PM 50.0 °F - 37.4 °F 62% 30.04 in 6.2 mi NNW 4.6 mph - N/A   Mostly Cloudy
3:30 PM 50.0 °F - 37.4 °F 62% 30.04 in 6.2 mi NNW 3.5 mph - N/A   Mostly Cloudy
4:00 PM 53 °F - 40 °F 49% 30.05 in 16 mi West 2.3 mph - -   Mostly Cloudy
4:00 PM 51.8 °F - 39.2 °F 62% 30.04 in 6.2 mi NW 3.5 mph - N/A   Mostly Cloudy
4:30 PM 51.8 °F - 39.2 °F 62% 30.04 in 6.2 mi SW 4.6 mph - N/A   Mostly Cloudy
5:00 PM 52 °F - 40 °F 54% 30.05 in 14 mi SW 8.1 mph - -  
5:00 PM 51.8 °F - 39.2 °F 62% 30.04 in 6.2 mi SSW 5.8 mph - N/A   Mostly Cloudy
5:30 PM 51.8 °F - 41.0 °F 67% 30.04 in 6.2 mi SW 9.2 mph - N/A   Scattered Clouds
6:00 PM 52 °F - 43 °F 61% 30.05 in 18 mi West 8.1 mph - -  
6:00 PM 51.8 °F - 42.8 °F 71% 30.04 in 6.2 mi SW 10.4 mph - N/A   Partly Cloudy
6:30 PM 50.0 °F - 42.8 °F 76% 30.04 in 6.2 mi SW 10.4 mph - N/A   Partly Cloudy
7:00 PM 51 °F - 44 °F 69% 30.06 in 14 mi WSW 6.9 mph - -   Scattered Clouds
7:00 PM 50.0 °F - 42.8 °F 76% 30.04 in 6.2 mi SW 8.1 mph - N/A   Partly Cloudy
7:30 PM 50.0 °F - 42.8 °F 76% 30.04 in 6.2 mi WSW 8.1 mph - N/A   Scattered Clouds
8:00 PM 50 °F - 44 °F 72% 30.07 in 14 mi West 3.5 mph - -  
8:00 PM 50.0 °F - 42.8 °F 76% 30.06 in 6.2 mi WSW 10.4 mph - N/A   Partly Cloudy
8:30 PM 48.2 °F - 42.8 °F 82% 30.06 in 6.2 mi WSW 5.8 mph - N/A   Partly Cloudy
9:00 PM 48 °F - 43 °F 77% 30.07 in 12 mi West 4.6 mph - -  
9:00 PM 48.2 °F - 42.8 °F 82% 30.06 in 6.2 mi Variable 1.2 mph - N/A   Partly Cloudy
9:30 PM 48.2 °F - 42.8 °F 82% 30.06 in 6.2 mi WSW 1.2 mph - N/A   Partly Cloudy
10:00 PM 48 °F - 43 °F 77% 30.07 in 12 mi NNE 2.3 mph - -   Scattered Clouds
10:00 PM 48.2 °F - 42.8 °F 82% 30.06 in 6.2 mi North 2.3 mph - N/A   Partly Cloudy
10:30 PM 46.4 °F 44.3 °F 42.8 °F 87% 30.06 in 6.2 mi NW 4.6 mph - N/A   Partly Cloudy
11:00 PM 46 °F - 42 °F 80% 30.07 in 9 mi North 6.9 mph - -  
11:00 PM 46.4 °F - 41.0 °F 81% 30.06 in 6.2 mi North 2.3 mph - N/A   Partly Cloudy
11:30 PM 44.6 °F - 41.0 °F 87% 30.06 in 6.2 mi Variable 2.3 mph - N/A   Partly Cloudy